User: anonymous
Location: Lake Runnemede Observatory
(43.4843°N, 72.3851°W)
Time: 21:30:35
(UTC-04:00)
Language:

SPOT 5 - Orbit

View from above orbital plane
View from above orbital plane
View from above satellite
View from above satellite

Ground track
Ground track

The orbit data is extracted from the following two-line orbital elements,

1 27421U 02021A   14259.81621573  .00000171  00000-0  10000-3 0  9303
2 27421 098.5525 319.9985 0001193 088.6147 046.3590 14.20101514641326
Epoch (UTC): 16 September 2014 19:35:21
Eccentricity: 0.0001193
inclination: 98.5525°
perigee height: 824 km
apogee height: 826 km
right ascension of ascending node: 319.9985°
argument of perigee: 88.6147°
revolutions per day: 14.20101514
mean anomaly at epoch: 46.3590°
orbit number at epoch: 64132

The dashed part of the orbit path shows where the satellite is in the earth's shadow,  

DLR